weather.gov     
National Weather Service

Terminal Aerodrome Forecast
NWS Homepage
This page is being discontinued on March 12, 2014.
The same data is available at this site. Please update your bookmarks.
Thank you, and we apologize for the inconvenience.
Please send an email to SR-SRH.Webmaster@noaa.gov with any concerns.


Current Version
Previous Version:    01  02  03  04  05  06  07  08  09  10  11  12  13  14  15  16  17  18  19  20  21  22  23  24  25  26  27  
[Printable]
833
FTUS46 KSGX 301300 AAA
TAFSNA
TAF AMD
KSNA 301329Z 3013/3112 VRB03KT P6SM OVC008
     FM301500 VRB05KT P6SM BKN010
     FM301700 VRB05KT P6SM SCT013
     FM301900 22009KT P6SM SKC
     FM310200 VRB05KT P6SM FEW014
     FM310600 VRB03KT P6SM OVC012=


U.S. Dept. of Commerce
NOAA National Weather Service
1325 East West Highway
Silver Spring, MD 20910
E-mail: w-nws.webmaster@noaa.gov
Page last modified: May 16, 2007
NATIONAL WEATHER SERVICE: for Safety, for Work, for Fun - FOR LIFE